Theta_e
320 318 319 319 318 312 310 307 293 296 296 288 289 291 288 297 297 294 293 296 289 292 294 294 294 293 291 289 290 291 293 290 292 289 287 295 303 302 303 304 304 305 305 307 308 309 311 314 318 317 319 317 320 318 319 320 319 319 318 317 317 316 316 315 315 315 315 315 314 315 315 314 314 315 316 315 315 317 317 318 317 318 317 319 318 319 317 317 319 319 319 318 318 318 318 317 317
316 319 317 317 316 319 299 306 295 293 292 288 288 292 292 295 294 291 290 291 291 291 294 295 294 293 293 293 293 293 291 294 295 295 298 301 300 301 303 304 304 304 305 307 308 309 311 313 314 316 318 317 318 317 317 317 319 318 317 316 316 315 315 314 314 314 313 313 313 313 313 313 313 314 316 315 315 316 316 317 317 317 317 317 317 317 318 318 318 317 317 317 317 317 317 315 315
316 317 316 313 312 309 305 303 291 290 287 283 287 291 296 293 291 293 293 293 294 294 295 294 294 293 293 293 290 290 287 294 295 296 296 298 297 299 303 304 304 305 305 307 308 309 311 313 314 315 316 317 317 317 316 316 317 317 316 316 315 314 314 313 313 314 313 312 312 312 313 313 313 313 315 314 315 315 315 315 315 315 316 315 315 316 316 316 316 316 316 315 315 315 315 314 314
318 318 313 311 302 307 298 298 294 291 286 287 287 292 293 292 293 294 295 296 296 297 295 292 290 293 293 289 289 294 291 291 295 296 295 297 298 301 302 304 305 304 305 307 307 308 311 312 313 314 315 316 316 317 316 316 317 315 315 315 315 313 314 313 313 312 311 311 311 311 312 312 312 313 313 313 313 313 314 315 314 314 314 314 314 314 315 314 314 314 314 313 313 314 314 314 313
315 316 315 310 303 295 298 295 293 293 286 289 286 292 293 294 294 294 295 296 296 296 295 292 291 292 293 292 293 291 290 294 295 297 297 299 302 302 303 304 304 303 304 305 305 307 311 311 313 314 315 316 317 317 316 316 316 315 315 314 313 313 313 313 312 311 311 311 311 311 311 311 311 312 312 312 312 312 313 314 313 313 313 313 313 313 314 314 313 313 313 312 312 313 313 312 312
314 313 313 309 299 305 301 292 290 289 292 294 290 291 295 295 295 295 295 296 295 295 294 293 291 291 290 291 294 292 296 291 295 297 299 299 302 304 303 307 303 302 303 304 305 306 311 312 312 314 315 315 317 316 316 316 316 315 314 314 313 313 313 312 312 311 311 311 311 311 310 310 310 310 311 311 311 312 312 313 312 312 312 312 312 312 312 312 312 312 312 311 311 311 311 310 310
311 310 310 307 305 305 294 291 289 290 292 296 293 293 295 296 296 295 294 293 293 294 294 292 293 293 290 293 295 296 298 299 296 299 303 303 304 304 303 303 303 302 303 304 304 306 311 312 312 313 314 315 316 317 316 315 314 313 312 312 311 312 312 312 312 311 310 310 310 310 309 309 309 309 309 310 310 310 311 312 311 311 311 311 310 310 311 311 310 310 310 310 309 309 309 308 309
315 307 306 299 296 298 291 291 291 292 292 296 296 294 295 296 296 295 293 293 291 292 292 293 293 291 289 293 289 295 298 299 301 301 302 302 304 303 304 302 302 302 303 304 304 306 310 312 311 312 313 314 314 315 314 313 312 312 311 310 310 310 310 311 311 310 310 310 309 309 309 308 307 308 308 309 309 309 309 311 310 310 310 309 310 309 309 309 309 309 309 308 308 308 307 307 307
310 307 310 301 294 296 292 290 291 295 294 296 296 297 297 296 296 294 292 292 292 293 293 293 292 290 289 291 291 295 296 298 299 300 304 303 302 304 302 302 301 302 303 303 304 306 308 312 311 311 311 312 313 313 312 311 311 310 310 309 309 309 310 310 309 309 308 308 308 308 307 307 307 307 307 307 307 308 308 309 309 309 309 309 308 308 308 308 307 307 307 307 307 306 306 306 306
304 306 297 298 297 290 291 291 290 292 293 295 296 295 296 296 293 294 293 291 291 292 291 292 294 289 291 289 291 294 296 299 299 300 301 302 303 303 301 302 302 302 302 303 304 305 307 309 310 310 310 311 311 311 311 310 309 309 308 308 308 308 308 308 308 308 307 307 306 306 307 307 307 306 306 306 306 306 307 307 308 308 308 308 307 307 307 307 306 306 306 306 305 305 305 305 305
299 303 305 297 292 290 288 289 291 293 293 295 295 296 295 295 295 293 294 292 293 291 292 293 291 290 291 289 292 298 299 298 298 298 300 301 304 302 301 302 302 303 302 304 304 305 305 306 307 309 309 309 309 309 308 308 308 307 307 307 306 306 306 306 306 306 306 305 305 305 305 305 305 305 304 304 304 304 305 306 306 306 306 306 306 306 306 306 305 305 305 305 304 304 303 303 303
298 300 302 293 292 291 291 290 291 292 294 294 292 295 296 295 295 292 292 291 292 292 292 293 290 293 289 290 292 296 297 297 299 300 300 301 301 302 302 302 303 302 303 303 304 304 305 305 305 305 306 307 307 306 306 306 306 305 305 305 305 304 304 304 304 304 304 304 303 302 303 304 303 303 303 302 303 303 303 304 304 305 305 304 305 304 304 305 305 304 304 304 303 303 302 302 302
300 302 296 293 291 292 292 291 291 292 293 293 293 294 296 295 293 293 292 292 292 291 290 293 293 292 288 290 293 296 295 297 299 300 300 301 302 302 302 302 302 303 304 304 304 304 305 304 304 303 303 302 303 304 304 304 304 304 303 303 302 302 302 302 302 302 302 302 301 301 301 301 301 300 301 301 301 302 302 303 302 303 303 303 303 303 303 304 304 303 303 303 302 302 301 301 301
300 301 297 290 296 293 292 291 293 290 290 293 295 295 295 294 294 293 293 292 291 291 293 293 294 293 290 291 292 294 296 298 299 301 300 300 301 303 303 302 303 302 304 303 303 303 304 303 303 302 302 301 301 301 302 302 301 301 301 301 301 300 300 300 299 300 300 299 299 298 298 298 298 298 298 299 300 300 300 300 301 302 302 302 302 302 302 302 303 302 302 301 300 300 300 300 300
300 303 298 294 292 291 292 290 291 290 289 294 294 292 293 293 294 293 293 291 291 294 294 294 294 292 289 290 290 294 296 298 300 301 301 300 301 303 304 303 303 304 303 302 303 303 302 303 302 302 301 300 299 299 299 298 299 299 299 299 298 298 298 297 297 297 297 297 296 296 296 296 296 296 296 296 297 298 298 297 298 301 301 301 301 301 301 301 301 300 300 300 299 298 297 298 298
304 302 299 293 290 290 290 290 292 290 289 295 291 291 291 290 292 291 292 292 292 293 293 292 294 294 292 293 293 296 297 299 299 300 301 301 301 301 301 301 301 302 303 303 302 303 303 302 302 301 300 299 299 298 298 297 296 296 297 296 296 296 296 295 294 294 294 294 294 294 294 292 293 293 294 292 295 295 295 295 296 298 299 298 299 299 299 299 300 299 299 298 298 296 295 295 296
302 306 294 293 289 290 290 290 293 288 293 293 293 292 290 289 290 291 291 292 292 291 292 292 295 294 293 293 295 296 298 300 300 299 301 301 300 300 300 300 300 300 301 302 303 302 303 302 301 300 299 298 297 297 296 296 294 294 294 295 294 294 293 293 293 292 292 291 292 292 291 291 291 292 290 291 291 292 293 294 294 295 297 296 296 297 297 297 298 298 297 297 296 295 293 292 293
303 296 293 290 292 290 293 292 293 295 293 294 292 291 291 288 290 291 292 292 291 291 291 292 292 293 295 294 295 296 297 298 298 299 298 299 300 298 298 299 299 299 301 301 301 302 302 302 301 300 299 298 297 297 295 295 295 293 293 293 293 293 292 292 292 292 291 291 291 291 291 290 290 290 290 290 290 290 291 292 292 293 294 295 294 294 295 296 296 297 296 295 294 293 292 291 291
298 296 294 289 292 291 296 294 296 295 293 294 292 289 290 290 291 291 290 289 290 290 291 292 292 294 294 294 295 297 298 298 298 298 297 297 297 297 298 299 299 299 299 301 301 301 302 301 301 299 298 298 297 296 296 295 294 294 293 293 293 292 292 292 292 291 291 291 291 290 290 290 290 289 288 289 289 289 289 290 291 291 291 292 292 292 292 293 293 294 294 293 292 291 290 290 290
294 296 291 291 294 294 295 295 295 296 296 292 290 290 290 289 289 291 290 289 290 290 289 290 291 291 293 294 295 297 298 298 299 298 297 298 298 298 297 297 298 299 299 300 301 301 302 302 300 299 298 298 297 296 296 295 294 294 293 293 292 292 292 292 291 291 291 291 291 290 289 290 290 289 288 288 288 289 289 289 289 289 289 290 291 289 290 290 291 291 291 291 290 289 290 289 290
296 296 292 292 295 293 293 294 295 294 294 292 290 289 290 290 290 291 291 290 289 291 292 291 291 292 293 295 296 297 297 297 298 299 299 299 299 299 299 298 299 299 300 301 302 301 301 301 300 300 299 299 298 297 296 294 294 293 293 292 292 291 291 291 291 291 291 291 291 290 290 290 290 289 289 289 289 289 289 288 288 288 289 288 289 288 288 288 288 288 288 289 289 289 289 289 289
295 291 295 295 294 292 292 293 291 291 290 291 290 290 290 291 290 290 291 290 290 292 293 293 293 294 294 294 295 296 296 297 296 296 297 298 298 299 299 299 298 299 300 299 300 300 301 300 301 300 299 298 298 297 296 294 294 293 293 292 292 291 292 291 291 291 290 290 291 290 290 290 289 289 289 288 288 288 288 287 287 288 288 288 288 287 287 287 287 288 288 288 288 288 289 289 289
290 292 291 293 294 292 292 291 289 289 290 290 290 291 291 291 290 289 289 291 292 293 293 293 294 294 295 296 296 295 296 296 296 297 297 298 299 298 298 299 299 298 299 300 300 300 300 299 300 299 298 298 297 297 296 296 295 295 294 292 292 291 291 290 290 290 290 290 290 290 289 289 289 288 288 288 287 288 287 287 287 287 287 287 287 287 287 287 287 287 287 287 288 288 288 288 288
295 290 292 291 293 291 289 290 287 289 291 290 291 291 291 290 290 288 289 293 294 292 290 291 292 292 292 294 295 295 296 296 296 297 298 298 299 300 301 298 299 300 300 300 300 300 301 299 299 298 298 297 297 296 295 295 294 294 293 293 292 290 290 290 289 289 290 289 289 290 289 289 288 288 287 287 287 287 287 287 287 287 286 286 287 287 286 286 286 287 287 287 287 288 288 288 288
292 290 291 289 290 288 289 289 289 290 289 289 290 291 290 289 289 289 291 293 292 291 291 291 291 292 292 294 294 295 295 296 297 298 298 298 298 299 299 298 299 299 299 299 300 300 300 300 298 297 297 296 296 295 294 294 293 293 293 292 291 290 290 289 289 290 289 289 289 289 290 288 288 288 287 287 287 287 287 287 287 286 287 286 287 286 286 286 286 286 286 287 287 287 287 287 287
292 290 291 290 289 290 289 290 290 290 290 289 290 290 290 289 288 289 293 293 291 290 291 291 292 292 293 294 295 295 295 295 297 297 297 299 299 297 298 299 298 297 299 300 300 300 300 300 298 297 297 296 295 295 295 294 293 293 293 292 291 291 290 290 290 289 289 289 288 289 289 289 287 287 287 286 286 286 286 287 287 286 286 286 286 286 286 285 285 286 286 286 286 286 286 287 287
292 291 291 291 289 290 290 291 289 289 290 290 290 290 289 289 288 290 293 292 291 292 292 291 293 293 294 294 295 295 295 295 296 297 296 297 297 297 298 300 299 299 300 299 300 300 300 299 299 298 297 297 296 295 294 293 293 292 292 291 291 290 290 290 290 289 289 289 288 288 289 289 288 287 287 287 286 286 286 287 286 286 286 285 286 286 286 285 285 285 285 285 286 286 286 286 286
291 291 291 290 290 291 290 291 290 291 290 288 291 289 289 289 289 292 293 290 291 292 292 292 292 294 294 294 294 295 294 296 296 294 295 295 297 297 298 299 299 299 299 299 300 301 300 299 299 298 297 297 296 294 295 293 293 292 292 291 290 290 290 289 289 289 289 288 288 288 288 288 288 287 286 287 286 286 286 286 286 286 285 285 286 285 286 286 285 286 286 286 286 286 286 286 286
290 291 289 289 290 291 290 290 290 290 290 289 288 289 288 289 290 293 291 290 290 291 292 292 293 293 294 294 294 294 295 295 295 294 295 297 298 298 297 299 300 300 300 300 301 301 299 299 299 298 298 297 295 294 294 293 293 292 292 291 291 291 290 290 289 289 288 289 289 288 288 288 287 287 286 286 286 286 286 286 286 286 286 286 286 286 286 286 286 285 286 286 286 286 286 286 286
291 291 291 288 289 289 290 290 290 289 290 288 288 288 290 291 293 292 290 290 290 290 292 293 293 293 294 293 293 294 295 295 294 296 297 297 298 297 297 298 299 299 301 300 301 300 300 300 300 300 298 297 296 295 294 293 293 292 292 292 291 290 290 289 289 289 289 288 288 288 288 288 287 287 287 286 286 286 286 286 286 285 285 286 286 286 285 285 285 285 285 285 285 285 285 285 285
291 287 290 290 289 288 289 290 289 289 288 288 288 289 290 291 293 291 289 289 291 291 293 293 293 293 293 294 293 294 295 296 296 296 297 298 297 297 297 298 298 298 300 300 299 300 300 299 299 298 299 297 296 295 294 294 293 293 292 291 291 290 290 290 289 289 288 288 288 287 288 287 287 287 286 286 285 286 285 285 285 285 285 286 285 285 285 285 285 285 284 284 285 284 284 285 285
289 288 290 289 290 288 289 289 289 289 290 290 289 289 291 291 292 290 289 289 289 291 293 293 293 293 293 293 293 293 294 296 295 295 295 296 296 296 297 297 297 297 298 300 300 300 299 299 299 298 298 297 296 295 295 294 293 293 292 291 291 290 290 289 289 289 288 288 288 288 288 288 286 286 286 286 286 285 285 285 285 285 285 285 285 285 285 284 284 285 285 284 283 284 284 284 285
288 290 288 289 289 288 288 287 288 288 288 290 288 289 290 291 292 289 288 289 289 291 292 293 292 292 292 293 293 293 294 296 297 296 296 296 296 296 296 296 297 297 298 299 300 300 300 299 299 299 298 297 296 295 295 294 293 292 291 291 290 290 289 289 289 289 288 288 287 287 288 287 286 286 286 286 286 285 285 285 285 285 286 285 285 285 284 285 284 284 284 284 284 283 284 283 284
290 290 290 287 288 288 289 286 287 290 288 289 290 289 291 291 291 290 288 288 289 289 292 293 293 293 293 293 293 293 293 295 295 298 298 295 297 296 295 297 297 297 298 299 300 300 300 300 300 299 298 297 296 295 294 294 292 292 291 291 290 289 289 289 289 288 288 287 287 287 287 287 286 286 286 286 286 286 285 285 285 285 285 285 285 285 284 285 285 284 283 284 284 283 283 283 282
289 290 289 287 285 285 286 288 287 289 289 289 289 288 291 293 293 291 290 288 289 290 292 293 293 293 293 293 293 293 294 294 295 298 297 295 296 297 296 296 297 297 297 298 299 300 300 300 300 298 297 296 296 295 294 293 292 291 291 291 290 289 289 289 288 288 288 288 287 287 287 287 287 286 286 286 285 285 285 284 285 285 285 285 285 285 285 284 284 284 283 283 284 284 283 283 283
289 289 289 288 289 288 288 287 286 287 289 289 289 290 291 292 293 293 289 287 288 290 292 291 291 292 292 292 293 293 294 294 297 298 297 295 296 297 296 295 296 297 297 297 298 299 300 300 299 298 296 295 295 294 293 292 291 291 290 290 289 289 289 289 288 288 288 288 287 287 287 286 286 286 285 285 285 285 284 284 284 285 285 285 284 284 283 283 283 283 283 283 283 284 284 284 284
286 287 289 287 287 288 286 285 286 286 287 289 288 288 289 291 293 295 290 287 287 288 290 291 292 292 293 293 293 294 295 295 300 297 297 297 298 297 296 296 296 296 296 297 297 298 299 299 299 297 296 295 294 293 292 292 291 291 291 291 290 291 290 289 289 288 288 288 287 287 287 286 286 286 285 285 285 285 284 284 284 284 284 285 284 283 283 283 283 283 283 284 282 282 283 284 284
287 289 289 288 288 289 286 286 286 289 287 289 286 288 291 293 295 294 289 288 289 290 291 292 292 293 293 294 295 295 296 297 296 295 297 296 296 296 296 296 297 295 296 296 297 298 299 299 298 298 296 294 294 294 294 293 293 293 293 293 292 292 291 290 289 289 288 288 287 287 287 287 286 286 286 285 285 284 284 284 284 284 284 284 284 283 283 283 283 283 283 283 284 281 282 282 283
288 290 289 289 289 287 285 285 286 288 287 290 288 288 291 293 292 292 290 290 292 291 292 293 293 294 293 293 294 295 295 296 297 296 297 297 298 297 296 297 297 297 298 297 298 298 299 299 299 299 296 295 295 295 294 294 294 294 293 294 292 292 292 292 291 290 289 288 287 287 287 286 286 286 286 286 284 284 284 283 284 284 283 284 283 283 283 283 283 282 282 282 281 283 283 283 282
289 290 291 289 287 287 288 286 286 287 287 288 288 287 292 293 290 289 288 289 290 291 289 290 291 292 294 294 295 295 296 297 297 297 297 297 298 297 296 296 297 297 297 297 297 298 298 298 299 298 297 295 295 295 295 295 295 294 293 292 292 291 291 290 290 289 288 288 287 287 287 286 286 286 286 286 285 284 284 284 284 284 284 284 283 283 283 282 283 283 282 282 282 281 282 282 283
288 289 289 288 287 287 286 288 287 285 286 285 288 289 293 293 292 292 290 288 288 291 290 290 292 292 293 294 292 293 293 295 297 297 297 297 297 297 297 297 297 297 297 298 298 297 297 298 299 299 298 296 296 295 295 295 294 292 292 291 290 290 289 289 288 288 288 288 287 287 286 287 286 285 286 285 285 284 284 284 284 284 283 283 283 283 283 283 282 283 282 282 281 280 280 281 282
288 285 286 286 284 286 286 287 287 288 289 287 284 289 289 293 291 290 292 292 292 292 291 294 295 294 293 292 293 295 295 295 295 296 298 298 297 298 298 298 297 297 297 298 299 298 298 298 299 299 298 296 295 295 295 295 293 292 291 290 289 289 289 289 288 289 289 287 287 288 287 287 286 286 285 285 285 285 284 284 284 283 283 283 284 283 283 282 283 282 282 282 281 282 280 280 281
289 287 284 285 285 285 285 287 287 288 287 288 287 288 286 294 292 292 291 290 292 294 293 294 295 295 294 294 295 295 296 296 296 295 296 295 296 297 298 298 298 297 298 299 298 298 298 299 299 299 298 297 296 295 295 294 293 293 292 292 293 293 292 293 293 292 291 290 290 288 288 287 286 285 285 285 285 285 285 284 284 283 283 283 284 283 282 282 283 283 283 282 282 282 282 280 280
289 284 285 285 285 286 286 286 289 287 287 289 288 286 288 288 292 292 290 289 294 295 296 297 296 295 294 294 294 295 296 296 297 298 298 297 297 297 297 298 298 298 299 299 298 297 297 298 298 298 298 297 297 295 294 294 293 293 292 292 293 293 293 293 293 291 290 290 288 288 288 287 286 286 285 285 285 285 285 284 284 283 283 283 283 283 283 283 283 283 282 282 282 282 281 280 280
287 285 286 286 286 285 285 288 288 287 287 288 289 287 287 287 291 292 289 293 293 295 295 296 296 296 295 295 294 294 294 294 294 295 297 298 298 297 297 298 300 299 299 298 297 297 297 298 298 298 297 297 297 295 295 294 294 294 293 293 292 293 293 293 293 291 289 288 287 287 287 287 286 286 285 285 285 284 285 284 284 283 283 283 283 284 284 283 282 282 282 282 282 282 282 281 281
285 285 285 285 285 285 285 288 288 286 287 286 286 284 286 287 291 293 293 292 292 294 295 295 296 295 295 295 296 295 293 293 293 293 293 295 297 297 298 298 297 298 298 299 298 298 297 297 297 297 297 296 296 295 294 294 294 294 293 293 292 293 293 292 292 290 289 288 287 287 286 286 286 285 285 285 285 284 284 285 284 283 283 283 283 283 284 283 282 282 282 282 282 281 282 281 281
285 287 287 287 286 286 286 287 287 287 286 286 283 284 283 286 290 291 291 292 292 293 294 296 296 297 297 297 296 294 292 293 293 294 294 295 295 295 295 295 296 297 298 297 297 297 297 296 296 296 296 297 296 295 294 294 294 293 293 293 292 292 293 292 291 290 289 288 287 287 286 286 286 286 286 285 285 284 284 284 284 284 284 283 283 283 283 283 282 282 282 282 281 281 281 281 281
287 288 288 287 287 287 287 288 287 286 285 284 282 282 282 285 287 293 295 293 291 292 292 293 295 295 296 296 295 294 293 293 293 293 294 295 296 296 295 294 295 296 296 296 296 297 297 296 296 295 296 296 296 295 294 294 294 293 293 293 292 293 293 292 291 291 290 289 288 288 287 287 286 286 286 285 285 284 284 284 284 284 284 283 283 283 284 284 283 283 282 282 282 282 282 281 281
288 287 287 288 288 289 286 289 286 286 285 283 282 282 284 287 291 293 294 295 294 293 292 293 293 294 295 296 296 294 294 293 293 294 295 296 297 297 297 297 297 297 296 297 296 297 297 297 296 295 295 296 296 295 294 294 293 293 293 293 293 293 292 292 292 291 292 291 290 289 288 287 286 286 285 285 285 285 284 283 283 283 283 283 283 283 283 283 283 282 282 282 281 281 281 281 280
288 288 288 289 286 283 282 283 281 284 285 282 283 281 285 289 292 295 293 295 295 293 292 293 292 292 292 293 293 292 294 294 294 294 294 295 295 296 297 297 297 297 298 298 297 297 297 296 296 295 296 297 296 295 294 293 293 293 293 293 293 292 292 292 291 291 292 291 291 290 289 288 287 287 286 285 286 285 285 284 284 284 284 284 284 284 283 283 283 282 282 281 281 281 282 281 281
287 285 287 288 288 285 281 284 284 284 286 286 281 283 287 287 290 293 294 295 293 292 290 290 290 290 291 291 292 294 295 296 296 295 296 296 295 295 295 295 296 296 297 297 297 297 297 296 296 295 295 296 296 295 294 293 293 293 293 293 293 292 292 292 291 292 291 291 290 290 289 289 288 288 287 288 287 286 285 285 284 284 284 284 284 283 283 283 283 282 282 282 282 282 281 281 281
287 286 286 289 287 288 287 283 284 283 285 286 284 287 289 292 293 294 293 292 292 291 291 291 294 293 293 295 297 297 296 296 297 296 297 297 297 296 295 295 296 296 296 296 296 297 297 296 296 296 296 296 297 296 295 294 293 293 293 292 292 292 292 292 291 291 291 291 291 290 289 289 288 288 288 287 287 286 285 285 284 284 284 284 283 283 283 282 282 282 281 281 281 282 280 281 281
287 287 289 286 286 286 279 276 273 274 281 286 285 287 290 293 294 295 295 295 296 295 296 295 296 296 297 298 297 297 297 297 297 297 296 296 297 297 297 296 296 296 296 296 296 297 296 296 296 296 296 296 296 296 295 295 294 293 292 292 292 291 291 290 290 291 290 290 290 290 289 289 288 288 287 287 286 286 285 285 284 284 284 284 283 283 282 282 282 282 282 281 281 282 281 280 281
287 288 287 285 283 285 286 286 282 284 284 285 284 286 289 289 287 295 295 294 295 295 295 295 297 297 296 297 297 297 297 297 297 298 298 298 298 298 297 297 297 296 296 296 296 296 296 296 296 295 295 295 296 295 295 295 294 293 292 292 291 291 290 290 291 291 291 290 289 289 288 288 287 287 287 286 285 285 285 284 284 284 284 283 283 283 282 282 281 281 281 281 281 281 281 281 281
287 286 287 287 287 287 286 286 282 282 282 283 286 283 285 288 291 292 293 293 294 295 295 295 295 295 295 296 296 297 298 298 298 298 298 298 298 298 298 297 297 297 296 296 296 296 295 295 295 295 294 295 296 296 295 295 294 293 292 292 292 291 290 290 290 290 290 290 289 289 288 287 288 287 286 285 284 284 284 284 283 283 283 283 283 282 282 282 281 280 281 281 281 281 280 280 281
284 285 287 285 286 286 288 286 285 287 282 280 285 284 288 290 292 294 293 293 293 294 295 295 295 295 295 295 296 296 297 297 297 297 298 298 298 298 297 297 296 296 296 296 295 296 295 295 295 294 295 295 295 295 295 294 294 293 292 292 292 291 291 290 290 289 289 289 289 289 288 287 287 287 286 285 284 283 283 283 283 283 282 282 282 282 282 281 281 281 280 280 281 280 279 279 280
286 286 286 285 285 285 285 284 284 286 284 283 283 284 289 294 293 294 294 294 294 293 294 295 295 295 295 295 295 296 296 297 297 297 297 297 297 297 297 297 297 297 297 297 297 295 295 295 295 295 294 294 294 295 294 294 294 293 292 292 291 291 290 290 289 289 288 289 289 289 288 288 288 286 285 284 283 283 283 283 282 283 282 282 282 281 281 281 281 280 280 280 280 280 279 279 280
285 287 289 289 286 286 285 285 280 280 285 280 282 284 290 296 290 295 295 294 294 293 293 294 295 295 296 296 296 296 295 296 296 296 296 297 297 297 297 297 298 297 297 296 296 296 296 295 295 295 294 294 294 294 294 294 294 293 292 292 291 291 291 290 289 289 288 288 288 288 288 287 287 287 285 284 283 283 283 283 282 282 282 282 282 282 281 281 280 280 280 280 280 280 279 279 279
Wind_Speed
7 5 1 1 2 5 7 7 6 6 7 16 12 8 8 5 4 8 7 3 7 5 5 9 11 8 9 9 11 9 8 6 4 5 5 4 1 3 3 4 4 4 5 6 7 8 11 14 16 16 18 18 19 18 19 20 21 21 21 20 20 20 19 19 19 19 19 18 18 19 19 19 19 19 20 19 18 20 20 20 20 20 20 20 21 20 21 20 19 19 19 20 19 19 19 19 19
4 3 9 8 5 4 7 3 9 8 9 13 14 8 8 7 10 11 11 11 7 5 3 6 7 8 9 10 6 6 11 9 7 7 5 3 1 4 4 3 4 5 5 6 7 8 9 12 14 17 18 17 19 18 20 19 20 20 19 20 20 20 19 19 19 19 18 17 18 18 19 19 19 19 19 18 19 19 18 19 19 19 20 19 19 19 20 20 20 19 19 20 19 19 19 18 18
4 1 2 7 13 10 5 6 7 8 10 16 9 8 4 9 11 10 9 9 8 6 2 2 3 3 3 5 10 7 6 4 3 3 5 2 4 6 4 3 3 3 4 5 6 7 8 11 15 16 17 18 18 19 19 19 20 19 19 19 20 19 19 18 18 17 17 17 17 18 17 17 18 19 18 19 19 18 18 18 18 18 19 19 19 19 18 18 18 19 19 19 19 19 18 18 18
9 8 4 4 9 8 7 6 12 9 15 12 11 8 8 9 9 8 6 6 6 1 1 1 1 2 5 9 6 4 6 4 4 2 4 3 5 3 3 3 2 2 4 4 5 7 9 12 14 15 16 17 18 17 18 19 19 19 19 19 18 19 18 17 17 17 17 17 17 17 17 17 17 18 18 18 17 18 18 19 19 19 20 19 19 19 19 19 18 18 18 19 19 18 19 19 18
15 11 10 5 9 8 2 7 9 7 16 7 10 7 9 8 8 7 5 2 1 2 2 2 5 4 6 7 2 2 6 6 5 1 3 4 1 2 2 2 2 3 5 5 6 7 9 14 13 15 16 17 17 17 18 18 18 18 18 18 18 18 18 17 17 17 16 16 17 17 17 17 17 18 18 17 18 18 18 19 19 20 19 19 20 19 19 19 20 19 19 19 19 19 19 19 19
14 16 13 12 8 3 6 11 13 16 11 7 9 8 8 8 7 6 6 2 2 1 2 1 3 3 4 5 5 3 1 1 3 2 1 5 2 2 2 2 2 5 5 6 6 7 9 13 13 13 14 15 16 17 17 17 18 18 18 18 18 18 17 18 17 17 17 16 16 17 17 17 17 18 18 18 18 18 19 19 19 19 19 19 19 19 19 20 19 19 19 19 19 19 19 19 19
4 7 8 9 8 3 12 14 15 13 10 8 10 10 8 6 7 6 5 5 3 6 3 4 4 6 6 2 3 5 2 3 2 4 2 3 2 2 1 0 1 4 5 5 6 6 9 12 13 13 14 15 15 16 16 17 17 18 18 18 18 18 18 18 18 18 17 17 17 17 16 17 17 17 17 18 19 18 19 19 19 19 19 19 19 19 20 20 19 20 20 19 19 19 19 18 19
7 5 6 8 9 7 16 15 14 8 8 10 9 10 8 6 5 3 3 2 3 2 5 2 2 4 5 4 3 3 1 2 3 1 1 2 2 1 1 0 2 4 4 4 5 5 7 12 12 13 14 14 15 15 16 17 17 18 18 18 18 18 18 18 18 18 17 17 17 17 17 17 17 18 18 18 18 19 18 19 19 19 19 19 19 19 19 19 19 19 19 19 19 19 18 18 18
9 12 1 8 13 7 13 15 13 10 9 9 9 8 5 4 1 3 5 4 5 3 1 1 1 3 4 4 6 4 3 2 0 2 3 2 0 1 1 1 2 3 3 4 4 5 6 11 12 13 13 14 14 15 16 17 17 18 18 18 18 18 18 18 18 17 17 17 17 17 17 17 17 18 18 18 18 19 19 19 19 19 19 19 19 19 19 19 19 19 19 19 18 18 18 18 18
10 6 7 5 7 17 12 10 9 7 9 6 7 5 2 2 4 1 6 6 6 5 5 2 2 6 6 7 6 4 4 1 1 2 2 2 1 1 2 2 2 2 3 3 4 4 5 8 12 12 13 14 14 15 16 17 17 18 18 18 18 18 17 17 17 17 17 17 17 17 17 17 17 18 18 18 19 19 19 19 19 19 19 19 18 18 19 19 18 18 18 18 18 18 18 18 18
8 5 0 6 12 13 13 10 10 7 8 6 7 5 4 2 2 4 3 6 1 4 5 1 8 6 4 3 4 3 1 0 3 4 3 1 1 2 3 2 2 2 3 4 4 4 4 5 9 12 12 13 14 15 16 16 17 18 17 17 17 17 17 17 17 17 17 17 17 17 17 17 17 18 18 19 19 19 19 19 19 19 18 18 19 19 18 19 19 19 18 18 18 17 17 16 17
9 5 4 11 12 11 10 11 10 9 8 6 7 4 2 3 1 5 5 6 4 4 3 4 4 6 5 3 4 5 1 3 2 3 1 1 2 2 2 2 2 3 3 3 3 4 4 5 5 8 11 12 13 14 15 16 17 17 17 17 16 16 16 16 16 16 16 17 17 17 17 17 17 17 18 18 19 19 19 19 19 18 18 19 18 18 19 19 19 19 19 19 18 17 17 16 16
14 6 12 9 10 11 11 12 8 9 8 6 5 4 1 1 3 5 4 5 3 5 6 5 5 4 3 3 3 3 4 4 2 2 1 1 4 3 3 3 3 4 4 3 3 4 4 4 5 6 8 9 11 14 15 16 16 16 16 16 16 16 16 16 16 16 16 17 17 17 17 17 17 17 17 18 19 19 19 19 19 19 19 18 18 19 19 18 19 19 19 19 18 17 17 16 15
6 4 8 9 5 9 8 8 6 8 6 5 3 3 1 2 2 1 2 5 3 3 3 2 2 2 6 3 4 3 4 3 2 2 1 2 3 3 3 3 4 4 3 3 3 3 4 4 4 5 5 6 6 7 13 15 15 15 15 15 15 15 15 15 15 16 16 16 16 16 16 16 16 17 17 17 18 19 18 18 19 19 18 18 18 19 19 19 19 19 18 18 17 16 16 16 15
10 2 5 8 6 8 2 5 6 8 7 4 4 1 4 4 2 0 2 5 5 2 2 1 3 5 4 3 4 3 4 4 2 1 4 4 4 4 4 3 4 3 3 3 3 3 3 3 4 4 5 5 6 6 6 10 14 13 13 14 14 14 14 14 15 15 15 15 15 15 14 14 14 16 16 16 17 17 18 17 18 18 18 18 18 18 18 18 18 18 18 17 17 16 15 15 15
3 3 4 7 8 10 3 8 1 8 6 3 4 1 4 3 1 1 2 5 5 2 3 2 2 3 3 4 7 6 4 3 2 4 5 6 5 4 4 3 3 3 2 2 3 3 2 3 2 4 4 5 5 6 6 7 9 11 11 12 13 13 13 13 13 13 13 14 13 13 12 10 11 11 15 12 15 16 17 16 17 17 18 18 17 17 17 17 18 17 17 17 16 15 14 14 14
2 2 11 7 9 9 3 5 4 7 8 6 5 3 2 4 2 1 2 3 2 2 1 3 2 2 2 4 4 3 3 2 3 6 6 5 5 4 3 3 3 3 2 2 1 2 2 2 2 3 4 5 6 5 5 5 7 7 6 9 9 10 11 10 10 10 10 10 10 10 9 9 8 8 9 9 12 11 15 15 16 16 17 17 16 16 17 17 17 17 16 16 16 15 13 11 13
3 6 9 11 6 9 3 5 3 7 9 7 6 1 4 6 4 3 3 4 4 3 3 2 1 1 2 3 2 2 1 3 4 7 6 5 4 3 3 3 3 2 3 2 2 2 1 2 2 3 4 5 4 3 3 3 3 5 6 5 6 6 8 8 7 7 8 7 9 7 7 7 6 7 8 9 7 9 10 14 14 15 15 16 15 15 15 16 16 16 16 15 15 14 12 7 7
8 6 9 9 3 4 4 4 7 6 8 7 3 2 3 5 3 4 3 4 4 6 4 2 5 4 3 2 2 2 3 3 4 5 5 6 4 3 3 2 3 2 3 2 2 2 1 2 2 3 3 4 5 4 2 2 3 3 3 3 3 5 5 6 6 6 6 6 6 6 6 6 6 5 6 7 5 7 8 11 12 12 13 14 14 12 13 14 13 14 15 13 12 12 8 6 6
8 4 10 7 4 6 3 3 4 4 10 7 6 2 2 4 1 2 1 5 3 2 5 4 4 6 6 5 4 4 3 3 2 4 5 5 4 3 3 3 3 3 2 2 2 2 2 1 2 3 3 3 3 3 2 2 3 3 3 3 3 4 4 4 5 5 5 6 5 5 5 5 5 4 5 6 5 6 6 8 11 11 11 12 15 8 10 12 12 12 12 12 9 7 7 7 6
5 6 7 7 5 8 4 2 2 3 1 7 4 4 4 2 1 2 3 5 3 3 2 1 5 7 8 7 6 4 5 5 4 4 5 5 5 4 3 2 2 1 1 2 2 3 3 2 2 3 2 2 2 2 2 2 2 2 2 3 3 3 3 3 3 4 5 5 5 4 4 4 4 4 5 5 6 6 6 6 7 7 7 7 11 7 7 7 8 8 7 8 7 7 7 7 6
8 8 9 9 3 9 3 4 3 1 2 5 4 5 4 2 2 2 1 1 4 3 3 3 2 6 8 9 7 5 6 6 6 6 7 7 6 5 4 4 2 2 2 3 3 3 3 3 2 2 2 2 2 2 2 2 1 2 2 3 2 3 3 3 3 3 4 5 4 4 3 4 4 4 5 6 6 6 6 6 6 6 7 7 7 6 6 7 7 6 7 7 6 6 6 6 6
10 5 5 5 4 10 2 2 2 2 5 6 4 3 3 2 2 1 3 1 4 3 2 0 1 1 3 6 7 7 7 7 7 8 7 7 7 6 4 3 3 4 4 4 3 3 3 3 3 3 2 3 3 2 2 1 1 1 2 3 3 3 2 3 3 3 3 4 4 4 4 4 4 4 5 5 6 5 6 6 6 6 6 6 6 6 7 6 6 6 6 6 6 6 6 5 5
11 8 5 7 3 8 1 2 0 2 2 3 2 2 1 1 3 2 3 3 3 3 1 1 0 1 2 6 8 8 8 8 8 7 7 7 6 5 3 4 4 2 4 4 4 4 4 5 5 4 3 3 3 3 1 1 1 1 1 1 2 3 2 3 2 3 2 3 4 4 4 3 4 4 5 5 5 5 5 5 5 5 6 6 6 6 6 6 6 6 6 6 6 5 5 5 5
12 11 5 5 6 4 2 2 2 2 4 1 2 2 2 2 2 1 2 3 2 2 1 2 3 3 4 6 8 8 7 6 7 7 5 5 6 6 5 4 4 4 6 6 5 5 5 5 5 5 4 4 3 3 1 1 1 0 1 1 2 2 2 2 2 2 2 2 3 3 3 3 3 4 4 4 4 5 4 5 5 5 5 6 6 6 6 6 6 5 5 5 5 5 5 5 4
6 10 7 6 6 5 1 4 3 2 2 0 4 1 1 1 2 4 3 2 2 2 3 3 4 5 7 8 8 8 7 8 6 6 7 4 4 6 8 7 5 7 7 6 6 6 5 6 6 6 5 4 4 3 2 2 1 1 0 1 1 1 2 2 1 2 2 2 2 3 3 3 3 3 4 4 4 4 4 4 4 5 5 5 5 6 6 5 5 5 5 5 5 5 4 4 4
6 10 10 10 5 4 2 2 3 1 2 3 2 0 1 1 3 4 3 3 2 4 4 3 5 7 8 7 6 6 6 8 7 4 4 6 6 8 8 6 8 8 6 7 7 6 6 6 6 6 5 5 4 4 3 2 2 1 1 1 1 1 1 0 1 1 2 2 2 2 2 2 2 3 3 4 3 4 4 4 4 4 4 5 5 5 5 5 4 4 5 5 4 4 4 4 4
11 13 12 9 7 6 2 3 3 2 2 4 4 1 0 1 1 1 5 3 1 5 6 5 6 7 7 7 6 5 5 6 3 4 9 9 7 7 8 7 8 8 8 9 7 6 7 8 7 6 6 6 5 4 4 3 3 2 2 1 1 1 0 1 1 1 1 1 2 1 1 2 2 2 3 3 3 3 4 4 4 4 5 5 5 5 5 4 4 4 4 4 4 3 3 3 3
6 3 7 3 3 4 7 2 4 4 2 3 3 2 3 3 4 3 3 2 2 4 6 6 7 6 6 6 6 6 7 6 4 6 9 8 7 5 8 8 7 7 6 8 8 8 9 8 7 7 6 6 6 5 4 3 3 3 2 2 2 1 1 0 1 1 1 1 1 1 1 1 1 2 2 2 2 3 3 4 4 4 4 5 5 5 5 4 3 4 4 3 3 3 3 3 2
3 4 6 5 3 4 5 1 3 3 2 3 1 2 2 6 6 3 2 2 2 4 7 7 6 6 6 6 6 7 7 6 8 8 8 7 7 7 9 8 7 6 5 5 7 10 8 6 5 5 7 7 7 5 5 4 4 3 2 2 2 2 1 0 0 1 0 0 1 1 1 1 1 1 1 1 2 2 2 3 4 4 4 5 4 5 5 4 4 4 4 4 4 4 4 3 4
4 1 3 0 3 3 3 3 6 2 2 2 3 2 2 4 6 4 2 2 6 8 8 8 7 6 6 5 6 7 8 7 9 8 8 8 7 6 8 7 7 7 5 6 10 11 10 8 6 5 7 8 7 6 6 5 4 3 3 2 2 2 1 1 0 0 0 0 0 1 0 1 1 1 1 2 2 2 2 2 3 3 4 4 4 4 5 4 4 4 5 5 4 4 4 3 3
3 2 2 1 2 3 3 2 6 2 2 2 3 3 1 3 5 5 2 2 5 8 8 8 7 6 6 5 6 7 8 6 7 8 9 9 8 7 7 8 7 7 9 8 8 8 10 9 8 8 9 9 8 7 6 5 5 4 3 2 2 2 1 1 1 0 0 0 0 0 0 0 1 1 1 2 2 2 2 3 3 3 4 3 4 4 4 5 5 4 4 5 5 4 4 4 3
2 3 2 1 1 2 3 2 2 1 3 1 3 3 2 4 4 4 1 4 6 8 8 7 7 8 7 7 6 6 6 8 7 8 8 7 6 6 6 7 7 8 8 8 10 10 10 10 9 9 10 10 8 8 7 6 5 4 4 3 3 3 2 2 1 1 1 1 0 0 0 1 0 1 1 1 2 2 2 2 2 3 3 3 3 3 3 4 5 5 4 4 4 4 4 5 4
2 2 1 1 0 1 1 3 1 3 3 2 2 3 3 2 2 4 3 3 6 8 10 9 8 7 7 5 6 6 7 7 9 8 4 4 4 5 6 5 6 7 8 9 10 10 11 10 9 9 7 8 7 6 6 5 4 4 3 3 3 3 3 2 2 2 2 1 1 1 1 1 1 1 1 2 1 1 2 2 2 3 3 3 3 3 3 3 3 4 5 4 4 4 4 4 5
1 2 2 2 2 3 4 2 3 7 4 3 2 6 11 7 4 6 6 3 6 9 9 9 8 7 7 6 6 7 7 8 10 7 2 4 5 5 5 5 5 6 6 8 8 9 8 8 7 8 7 7 6 5 5 4 3 3 2 3 3 4 3 3 2 2 2 2 1 1 2 2 1 2 1 2 2 1 1 1 2 3 3 3 3 4 4 4 4 4 4 5 3 3 4 4 4
2 1 2 1 1 2 0 2 2 6 6 4 3 5 5 6 5 5 4 4 7 9 6 6 7 6 7 7 7 7 7 10 8 4 4 4 5 4 4 4 4 5 5 6 8 8 8 7 6 6 7 7 6 5 5 4 4 4 4 4 4 5 4 4 4 3 2 3 2 3 2 2 2 2 2 1 2 2 1 1 2 2 3 3 3 3 4 4 5 6 4 4 5 3 2 4 4
2 2 2 2 1 2 2 1 2 1 4 2 2 5 7 10 9 5 6 4 4 7 8 8 8 8 8 8 8 8 8 11 2 3 5 5 5 4 3 3 4 4 5 6 7 8 9 8 8 9 7 7 6 6 6 6 5 5 4 5 5 4 4 4 4 4 4 3 3 3 3 3 2 3 3 2 2 2 2 1 2 1 2 2 2 2 3 4 4 5 5 4 4 5 2 4 5
3 1 0 2 1 2 2 1 2 1 5 0 1 6 11 11 10 3 5 4 8 9 8 9 10 9 8 8 9 9 10 4 5 6 6 5 5 4 3 3 4 6 7 7 9 9 9 8 9 8 6 8 8 7 6 6 6 5 3 3 3 3 4 4 4 4 5 4 4 4 4 3 4 4 3 3 2 3 3 2 2 2 2 2 2 2 3 3 4 4 5 4 2 3 3 4 5
1 2 0 1 2 3 1 1 1 1 2 2 1 8 11 8 7 3 4 6 3 3 5 6 5 7 7 7 8 8 7 9 6 8 5 5 5 4 3 4 5 6 5 8 7 8 8 8 8 8 7 8 8 8 7 7 6 5 4 2 2 2 2 3 2 2 4 5 5 5 5 4 5 4 4 4 3 3 4 3 3 2 3 2 3 3 2 3 3 3 4 4 5 2 3 2 4
3 1 1 3 3 4 1 2 2 2 2 4 8 6 6 4 2 3 1 3 3 3 5 7 6 8 7 7 6 6 8 8 9 9 8 7 6 5 5 6 6 5 5 6 7 9 7 8 9 9 8 8 8 8 8 7 5 3 2 2 1 3 2 1 3 3 5 6 6 6 6 6 6 5 5 5 4 4 4 4 3 3 3 3 3 3 2 3 2 3 3 4 4 5 3 2 2
2 3 2 1 2 1 2 2 3 2 2 3 9 4 1 5 5 4 4 2 3 3 4 7 7 8 8 6 7 7 9 8 8 8 6 5 7 9 8 6 5 6 7 8 8 9 7 10 10 10 8 9 8 8 9 7 5 4 4 2 2 3 4 4 4 5 6 6 6 7 8 7 7 7 6 6 5 5 5 5 5 4 4 3 3 3 3 2 3 3 3 4 3 4 5 4 2
2 1 2 2 0 3 3 6 5 3 3 4 8 2 5 3 2 2 4 3 4 2 4 8 7 6 6 8 10 8 9 9 9 9 7 5 7 7 7 6 7 8 9 10 8 9 9 8 9 9 8 7 9 10 10 8 7 7 6 6 6 6 6 6 7 7 6 7 8 7 7 8 8 7 7 7 7 6 6 6 6 5 5 4 4 3 3 3 4 3 3 3 3 3 4 5 4
1 2 1 1 1 2 3 5 3 1 2 5 3 4 3 1 7 6 4 5 6 2 5 8 6 5 6 8 8 7 8 7 7 9 8 8 8 7 8 8 9 9 11 7 8 9 10 9 9 10 9 8 8 9 10 8 9 9 10 10 9 8 8 7 6 4 5 5 5 6 6 7 8 8 8 7 7 7 6 6 6 6 5 5 4 4 4 4 4 3 3 4 3 3 3 5 4
1 1 2 2 1 2 2 4 3 2 2 2 4 4 1 4 5 3 4 4 4 3 3 2 3 4 5 5 6 6 6 6 6 7 8 8 8 9 11 11 10 11 8 6 7 8 10 11 9 10 8 8 8 8 10 10 10 10 10 10 9 9 9 9 6 5 4 4 5 6 6 6 8 8 8 8 8 8 7 7 7 7 6 6 5 5 5 4 4 4 4 4 4 4 4 4 4
2 3 1 1 1 1 2 2 2 2 2 3 3 9 2 2 3 2 3 3 8 7 8 6 5 2 1 2 3 5 7 7 7 7 8 7 8 9 9 9 9 8 7 7 8 8 8 9 9 9 10 9 8 10 10 11 11 10 10 9 10 9 9 8 5 4 4 5 6 6 7 7 7 8 9 9 9 9 8 8 8 7 7 7 6 6 6 5 6 6 5 5 5 4 4 4 5
2 3 2 2 1 1 2 1 0 1 2 2 6 7 1 4 3 5 0 1 7 8 8 7 5 6 5 5 4 3 3 4 5 8 9 9 8 7 7 8 8 8 6 7 7 7 7 7 10 11 12 10 9 11 11 12 12 10 10 11 12 10 8 7 6 6 6 6 7 7 7 7 7 7 9 10 9 9 9 9 8 8 8 7 7 7 6 6 6 6 7 6 5 6 5 5 5
1 3 2 2 1 0 0 1 1 1 1 3 3 5 4 2 5 4 6 6 7 8 7 4 5 5 5 3 4 4 5 5 4 5 7 9 8 8 8 10 11 9 7 7 8 9 8 9 10 12 14 10 10 11 12 13 12 12 12 12 13 13 11 8 7 8 7 7 7 8 8 7 7 7 7 8 10 10 10 9 9 8 8 7 7 7 7 7 6 6 6 7 7 7 6 5 6
2 1 1 1 2 2 1 1 1 1 1 2 3 4 4 0 2 2 3 2 3 6 8 10 10 9 7 7 6 5 5 5 6 6 6 7 7 8 7 10 11 10 8 9 9 9 9 10 10 13 12 13 11 11 12 13 12 13 13 13 13 13 12 9 11 11 9 9 9 8 7 6 7 7 7 8 8 10 9 9 10 9 8 8 8 7 7 7 6 6 6 6 6 7 7 6 6
2 2 2 2 1 0 1 0 0 2 2 2 1 4 1 1 1 4 7 6 5 3 5 7 9 10 9 8 9 7 6 7 7 6 7 6 6 6 6 9 8 9 10 10 10 9 9 10 12 13 14 13 12 12 13 14 13 13 13 13 13 11 12 12 11 11 9 9 8 8 8 7 7 7 8 9 9 11 9 9 9 9 9 9 8 8 8 8 7 6 7 7 7 7 6 7 6
1 1 2 1 1 2 1 0 1 2 1 1 2 1 1 2 2 1 4 6 6 5 5 6 7 9 10 10 9 8 7 6 6 6 6 7 7 7 8 8 8 8 9 9 9 9 8 8 11 12 16 12 11 11 13 13 15 14 13 13 12 11 12 11 11 10 10 9 8 8 9 8 8 9 8 9 8 10 9 10 9 10 9 8 9 9 8 8 8 7 7 8 8 7 7 8 8
2 1 2 2 1 1 0 1 2 2 2 1 1 2 2 1 3 2 5 6 6 4 3 4 6 6 6 7 7 6 6 7 5 6 6 7 7 8 8 8 8 9 10 9 8 8 8 9 10 13 14 13 12 13 11 14 13 13 13 12 11 10 11 10 10 10 9 9 9 9 9 8 8 8 8 7 8 9 10 9 10 10 10 10 9 9 8 8 8 8 8 8 8 7 8 8 8
1 0 3 1 2 1 1 2 1 0 1 1 1 2 1 2 2 4 2 4 3 3 2 3 2 1 3 3 5 6 7 7 7 7 8 8 7 7 6 7 7 8 9 8 9 8 8 10 10 12 13 12 10 12 12 12 13 10 12 13 13 12 10 9 9 9 9 9 10 9 9 9 8 8 7 7 8 8 9 9 10 10 10 10 10 10 9 8 9 9 8 8 9 7 8 10 9
2 1 1 2 2 2 5 2 3 1 1 1 1 4 3 4 3 1 2 2 3 4 6 6 7 6 4 6 7 8 7 7 8 8 8 9 9 7 6 7 8 8 8 8 9 9 10 10 10 12 12 11 11 11 11 10 10 10 12 13 12 11 12 13 12 12 12 9 9 9 9 9 8 7 7 6 8 8 8 9 9 10 11 10 10 10 10 10 9 9 9 9 10 9 9 10 9
2 0 3 4 1 2 1 1 1 0 0 0 1 2 2 2 2 1 1 2 5 6 7 6 6 7 8 7 7 7 8 8 8 7 6 7 7 8 7 6 7 8 10 10 11 10 8 9 10 12 12 13 11 10 11 10 10 11 11 11 12 12 12 13 12 12 9 9 9 9 9 9 10 8 7 6 7 8 9 10 9 10 10 10 11 10 10 11 10 10 10 10 10 9 9 9 9
3 2 2 3 1 1 1 0 0 0 1 2 1 1 4 4 1 3 1 3 4 5 6 6 8 8 8 8 9 8 8 7 7 8 8 8 8 9 9 9 9 9 9 9 10 9 9 9 9 10 13 12 12 9 9 9 10 8 7 9 10 11 11 11 10 10 9 10 12 10 10 10 8 8 8 8 8 9 9 9 10 10 10 11 10 10 10 10 11 10 11 10 11 11 10 10 10
2 2 1 0 2 2 1 1 0 1 1 1 1 1 0 5 1 2 3 2 1 3 5 6 6 7 6 6 7 7 7 7 7 8 9 9 9 9 9 9 10 10 10 9 9 8 9 9 9 10 10 10 10 11 10 11 10 9 10 9 11 10 10 10 10 9 10 12 12 11 11 10 10 7 8 9 9 9 10 10 9 10 10 10 11 11 11 11 11 11 11 10 10 12 12 12 11
3 2 0 1 2 1 1 2 1 1 0 1 1 1 1 2 4 4 5 2 1 1 3 4 5 6 6 6 6 7 7 7 7 8 9 10 11 11 10 8 7 7 6 6 7 8 8 8 8 9 10 11 10 10 9 10 8 9 11 12 11 10 12 10 11 11 12 12 11 10 10 9 6 9 8 9 9 10 10 10 10 10 11 11 11 11 10 11 12 12 11 12 11 12 13 12 11
2 1 1 2 4 2 1 1 2 1 1 1 2 2 1 2 3 4 5 4 2 1 3 4 5 6 6 6 6 5 6 7 7 8 9 9 10 10 10 8 7 8 9 11 9 8 9 9 9 9 8 8 9 9 8 9 8 9 11 11 11 10 9 9 11 11 12 12 11 10 9 8 10 9 8 9 9 9 9 9 10 11 11 11 11 12 11 11 12 12 13 10 11 13 13 13 12
Wind_Direction
69 66 77 37 288 70 65 1 83 39 70 69 82 57 79 65 93 97 78 160 64 55 40 53 48 43 56 75 92 80 32 39 28 334 72 73 87 23 21 2 16 8 8 16 9 3 6 358 352 18 20 20 25 21 23 23 23 24 24 19 19 18 19 16 17 19 20 18 14 18 17 18 15 18 19 15 13 19 13 13 14 17 12 15 14 13 13 14 13 10 12 11 11 7 5 10 6
64 39 72 70 26 254 46 352 90 109 83 88 65 78 77 86 77 64 67 60 61 85 75 68 68 67 64 91 118 124 54 43 19 58 94 77 125 74 46 34 13 18 12 11 6 9 3 5 2 22 22 19 26 19 20 21 24 26 21 20 18 18 18 18 17 18 17 18 15 20 17 18 15 17 18 13 15 18 17 16 13 15 14 16 14 13 12 12 13 11 11 11 6 6 7 5 8
58 275 207 82 51 66 103 324 104 94 91 74 72 64 103 75 72 74 72 80 90 105 114 80 103 50 124 195 64 18 84 63 83 68 68 137 210 64 44 27 11 11 17 2 2 10 7 16 12 19 22 18 22 20 18 20 25 24 21 20 18 19 18 20 19 19 18 17 18 20 18 19 15 17 18 13 17 15 17 16 17 15 14 14 12 11 12 12 10 10 11 9 7 5 4 6 5
57 15 33 100 78 48 62 61 74 84 78 88 88 64 66 78 83 86 81 88 82 149 235 215 82 8 334 79 78 92 81 81 36 44 110 91 38 44 54 11 338 15 27 12 3 10 20 13 8 18 21 20 18 18 18 20 22 21 21 19 18 20 20 21 20 19 19 20 19 20 20 20 17 16 20 15 13 16 15 17 17 14 15 11 13 10 12 11 8 10 11 10 6 4 7 4 6
67 42 21 49 84 61 51 53 55 55 68 53 94 92 81 85 100 105 106 99 68 333 277 146 112 43 38 58 352 23 81 96 91 340 79 70 59 31 321 323 351 29 30 19 11 12 19 15 9 14 17 16 17 17 18 21 22 20 20 20 20 22 22 22 22 21 21 20 21 21 21 20 20 18 18 16 14 16 15 18 15 14 15 13 13 12 12 11 8 11 11 9 8 6 7 5 4
76 65 42 50 59 184 89 81 70 60 56 71 92 91 93 93 105 108 108 108 16 325 40 58 30 150 92 40 350 48 347 58 98 131 314 79 43 1 316 294 358 31 26 25 19 15 15 14 13 16 18 19 19 20 22 23 22 21 20 21 22 24 24 24 25 25 23 22 22 22 21 21 20 19 20 16 18 14 17 18 15 16 14 14 13 12 12 13 10 10 11 9 8 8 7 6 6
85 72 40 84 105 359 83 76 77 76 48 60 85 100 100 105 106 125 129 135 84 78 12 77 99 142 119 126 141 54 346 11 178 79 300 42 308 302 300 230 4 41 31 24 19 19 20 13 16 18 20 19 22 24 25 24 23 21 21 21 23 24 25 25 25 26 25 24 23 24 22 22 21 21 19 20 16 15 19 18 16 15 16 14 14 11 14 14 10 12 11 10 8 9 8 7 7
19 98 31 73 83 60 71 72 70 72 72 66 79 96 94 108 124 129 102 295 84 81 79 76 244 71 70 282 79 79 102 223 14 23 278 284 315 313 236 296 53 50 34 28 27 27 22 20 21 22 22 23 25 27 27 26 24 23 23 23 24 25 25 26 27 27 27 25 24 23 22 22 20 20 20 19 18 16 18 21 17 17 17 16 16 13 16 15 13 13 12 10 9 9 8 8 9
57 80 152 87 76 81 73 73 82 79 102 92 82 75 72 86 89 110 94 71 119 71 100 277 45 280 97 115 77 91 115 108 235 299 278 253 129 107 167 44 30 55 43 37 33 27 34 23 27 26 25 26 28 29 29 28 26 25 25 26 26 26 27 27 27 27 27 26 25 24 25 24 24 23 23 22 21 19 17 22 19 18 18 19 16 16 15 15 13 13 12 12 10 9 8 8 10
60 17 72 73 95 82 89 80 83 64 82 67 78 81 93 141 117 57 114 106 78 85 57 18 280 97 149 104 127 163 116 95 4 173 169 134 50 167 124 87 60 39 57 50 42 42 43 33 32 32 30 29 32 31 32 29 28 28 28 28 28 28 27 27 27 27 26 26 25 26 25 26 26 26 25 25 24 21 19 21 21 19 19 19 18 15 16 15 13 13 12 14 11 10 9 8 8
74 39 275 76 76 81 83 99 97 108 96 105 87 74 76 99 113 101 60 101 32 96 118 249 104 110 133 96 53 70 64 279 208 149 105 57 79 169 133 102 78 28 78 62 57 46 47 48 41 37 36 36 35 35 33 32 31 30 30 30 30 29 27 26 26 26 26 26 26 26 27 28 28 28 28 26 25 24 21 20 22 19 18 18 17 14 15 14 12 11 10 12 12 10 8 9 7
83 54 55 82 71 89 93 99 101 104 107 109 85 77 64 88 131 117 132 117 124 116 93 269 104 161 98 136 118 142 173 168 177 92 9 34 160 120 117 125 104 89 83 88 74 62 50 49 47 48 45 43 41 40 37 35 34 33 33 32 31 30 28 27 27 26 27 26 27 27 28 28 30 29 28 27 26 26 23 21 20 20 19 16 17 14 13 15 12 10 10 10 11 10 10 10 6
96 94 83 76 83 90 107 98 102 112 109 70 82 64 52 175 98 95 99 105 132 128 85 57 99 256 111 88 89 152 182 121 69 24 31 254 135 140 143 123 113 98 101 92 83 74 61 57 57 52 52 50 51 45 42 38 37 37 34 34 32 31 29 29 27 27 27 27 27 27 28 29 30 30 28 27 26 26 25 21 19 20 18 17 16 15 13 14 13 11 10 10 10 11 12 12 9
77 65 104 91 92 88 90 97 131 110 82 100 71 66 20 73 68 24 138 106 100 81 73 86 281 278 105 174 144 156 128 92 51 43 132 141 133 126 123 121 109 110 105 108 96 89 76 65 62 59 51 49 45 51 50 41 40 39 38 36 34 32 31 30 29 28 27 27 27 27 29 29 29 30 27 26 25 25 24 22 18 21 20 18 18 16 15 12 14 13 11 11 13 14 16 17 15
99 243 85 89 99 99 6 104 113 104 108 123 89 102 121 55 49 87 289 102 81 21 83 262 334 269 93 212 126 125 115 62 36 87 144 139 132 123 117 122 125 117 116 108 105 94 84 84 79 69 61 53 51 49 45 48 42 42 41 39 35 33 32 31 31 29 28 27 27 26 26 27 27 28 25 25 24 24 24 21 18 19 21 21 19 18 17 15 14 14 14 14 14 15 17 19 19
99 131 75 94 74 97 68 98 299 105 117 145 101 79 113 92 289 271 43 330 103 107 257 110 162 340 87 63 98 106 64 44 60 141 142 136 138 135 140 154 145 126 113 124 118 98 87 84 81 76 68 61 58 57 57 51 44 43 44 42 38 36 33 32 30 29 28 27 23 21 22 21 23 25 23 23 21 23 22 21 18 19 22 22 21 20 19 17 16 17 16 14 16 17 16 20 21
243 247 88 87 94 95 159 111 190 99 122 143 144 197 184 112 99 37 316 262 168 93 80 28 10 304 60 65 74 77 73 62 137 150 149 162 173 175 181 186 179 153 141 126 113 119 109 91 81 83 76 77 71 67 62 58 47 36 45 44 42 38 32 32 28 29 24 26 17 18 19 22 22 22 22 17 20 20 21 20 20 20 22 22 20 21 19 19 18 18 17 16 16 16 14 16 21
286 53 86 73 85 92 120 91 83 106 136 151 175 236 162 131 156 123 211 117 85 131 103 91 167 262 341 58 352 26 81 146 151 168 176 175 198 188 201 195 213 186 177 155 143 140 143 112 97 95 95 82 82 77 68 55 51 47 37 42 39 34 36 24 32 25 25 19 18 19 23 24 20 25 22 14 19 16 20 17 19 20 21 21 18 18 18 18 17 18 18 16 16 13 10 10 16
45 75 74 100 42 75 14 69 105 128 128 140 131 164 285 104 172 161 214 128 148 131 109 131 124 116 142 182 139 169 149 154 175 194 180 193 199 211 220 187 221 200 191 181 157 169 157 127 129 98 95 102 96 87 78 68 51 34 37 35 47 41 35 34 28 30 26 22 19 21 26 25 17 29 22 7 353 2 14 11 11 14 16 16 10 10 14 14 14 15 16 14 13 10 13 12 13
21 64 83 70 53 91 63 40 91 5 129 136 148 144 197 116 246 156 235 132 192 157 147 165 167 161 172 161 168 157 181 163 194 210 213 208 215 228 223 232 219 218 206 195 159 163 186 159 129 114 116 110 86 75 67 56 39 32 26 25 31 31 34 30 40 30 28 25 20 25 24 20 12 19 8 10 2 12 12 8 7 8 11 11 5 7 6 8 6 10 13 11 13 14 14 12 11
360 54 70 119 128 118 63 349 45 107 324 131 121 154 149 152 216 260 139 169 109 117 197 116 169 172 170 172 171 173 184 194 200 220 236 236 229 236 251 272 298 233 181 179 186 175 179 167 156 131 131 117 97 92 72 50 28 33 31 26 33 29 25 30 32 35 33 24 23 25 20 19 11 19 17 14 14 12 10 9 7 9 7 8 1 9 5 1 3 7 9 11 14 14 14 17 11
83 56 66 105 112 95 59 83 65 103 311 123 140 157 108 113 190 180 234 307 93 78 124 175 117 159 170 175 180 182 195 206 212 219 229 235 233 229 227 220 191 210 175 221 203 175 180 170 187 137 135 114 94 74 64 80 341 28 24 26 26 32 31 28 29 31 33 26 20 12 13 20 18 24 21 17 14 12 12 9 7 6 3 6 3 7 3 2 1 7 9 11 11 14 16 18 18
95 63 50 58 353 110 101 136 138 224 145 139 150 88 139 235 118 63 284 301 75 68 70 53 134 103 148 173 172 193 201 210 213 220 225 233 241 248 245 240 217 206 198 223 194 191 173 179 173 168 144 127 105 96 103 63 34 19 30 24 6 30 27 22 34 34 37 26 12 18 15 16 20 22 21 18 17 11 12 7 5 5 3 5 2 1 0 3 3 6 8 10 9 12 16 17 21
95 108 102 70 55 99 59 93 240 258 214 126 55 147 217 207 182 104 258 215 137 121 3 315 73 136 176 180 190 198 206 212 218 220 227 236 246 253 278 262 238 221 216 209 202 198 185 186 173 181 157 147 138 133 129 120 60 35 38 63 30 32 6 27 35 37 27 38 25 18 12 17 18 22 20 18 14 13 12 1 3 6 5 5 358 2 359 1 4 4 3 6 5 10 16 15 16
84 100 107 110 71 71 91 93 114 126 66 46 198 201 49 335 19 287 233 146 128 123 127 159 151 158 177 207 196 204 211 218 234 233 230 242 246 255 250 248 254 224 225 209 200 205 192 182 184 185 164 158 143 153 143 122 128 57 29 39 46 13 25 29 30 24 39 36 38 17 13 17 19 27 21 15 8 15 7 4 4 8 6 4 357 3 3 359 0 1 359 0 5 6 10 14 8
33 102 111 113 105 115 107 110 81 69 120 2 222 87 60 75 316 244 167 114 96 123 158 143 157 170 189 205 205 206 213 220 226 236 241 235 236 245 242 233 227 230 228 212 197 204 193 183 191 187 177 163 155 170 160 182 181 183 96 40 53 15 43 35 343 30 32 27 41 25 18 20 25 20 22 9 9 9 5 4 6 7 8 3 0 2 2 356 357 357 356 354 359 3 7 10 353
121 114 109 107 117 121 54 114 85 40 70 324 248 185 115 139 289 154 188 110 125 163 155 154 183 191 197 203 209 219 228 229 233 245 256 248 245 241 246 222 223 232 222 214 204 203 186 188 192 185 174 164 170 174 173 180 193 205 154 146 92 52 60 326 18 31 31 39 37 24 24 24 34 29 20 8 7 2 9 5 7 5 8 4 1 360 356 354 353 0 354 348 355 351 1 2 350
117 119 103 93 111 85 114 137 63 261 138 354 345 110 173 114 227 310 126 109 160 190 174 175 197 204 203 208 216 221 236 242 232 233 251 249 245 240 239 229 223 217 209 214 208 194 188 195 190 183 179 173 183 172 173 185 196 187 175 188 149 120 172 21 35 27 34 50 36 15 12 30 30 47 24 10 1 6 10 6 5 5 5 1 358 358 347 344 345 345 352 337 335 339 347 359 351
130 239 101 97 132 101 24 23 3 311 92 0 340 223 214 186 227 121 96 80 170 211 197 196 205 212 214 215 221 226 234 232 226 235 243 247 251 243 254 245 237 216 217 213 198 188 195 191 189 184 182 176 191 183 182 192 191 191 190 191 156 171 192 56 43 45 38 55 47 18 12 8 23 26 40 17 350 9 9 5 7 7 3 355 351 345 335 340 342 347 351 336 349 330 343 345 332
165 63 104 130 154 97 27 252 342 264 73 335 251 212 118 192 197 133 104 168 159 204 218 211 214 214 221 220 229 236 234 233 237 238 245 246 245 242 246 248 227 231 217 197 191 196 190 182 181 177 183 184 189 188 188 191 192 195 195 189 162 193 167 174 110 74 42 41 63 52 354 6 3 31 4 21 346 10 6 13 6 6 359 347 346 348 345 354 349 349 349 346 355 342 341 340 333
144 153 280 60 212 98 65 14 342 205 67 331 212 313 125 171 185 132 105 190 195 211 215 216 218 222 224 228 235 243 244 237 246 250 251 252 253 246 244 245 224 218 217 203 201 198 189 183 178 181 182 186 183 189 194 196 190 198 195 194 177 207 177 204 142 120 135 80 242 118 318 18 21 13 354 340 8 358 1 11 7 10 352 342 348 357 341 349 350 347 357 348 345 350 340 327 320
92 220 129 151 281 111 114 75 17 360 119 301 268 249 52 167 166 130 116 179 209 227 224 223 226 230 233 235 239 246 251 240 243 252 254 255 249 246 237 240 222 214 216 210 200 192 195 188 183 189 181 188 188 189 192 195 193 196 203 185 184 193 203 208 190 183 167 240 161 344 171 245 4 345 335 328 349 360 5 1 11 1 343 341 351 351 346 352 355 338 356 350 340 349 347 333 318
161 280 97 84 359 98 190 133 115 17 287 217 256 328 315 213 140 122 108 188 198 226 235 233 235 242 245 243 243 251 266 259 243 241 238 238 240 238 243 240 223 218 214 206 195 191 194 188 186 193 188 190 188 187 189 194 193 194 200 193 194 191 211 207 193 190 211 199 198 248 161 260 189 288 304 321 322 356 359 360 358 349 340 340 347 347 355 356 351 338 342 350 344 330 335 333 315
101 335 77 15 267 182 146 121 204 344 267 210 171 249 245 64 146 155 167 200 194 223 234 234 234 238 240 246 252 252 254 265 264 256 220 219 243 243 247 242 231 214 212 211 203 195 196 186 188 193 190 190 188 185 190 192 198 197 204 201 201 211 212 222 204 207 217 206 215 185 185 240 191 230 281 302 317 338 357 348 345 341 328 337 339 341 355 347 348 345 336 343 344 334 340 340 328
96 134 144 145 210 269 326 272 54 329 160 274 213 253 265 256 200 204 193 191 220 228 229 234 232 234 238 242 245 251 255 257 259 256 233 251 249 246 241 233 222 212 210 206 204 203 197 187 186 185 184 183 183 181 179 190 193 208 218 214 214 223 214 216 219 220 212 223 215 170 201 227 183 214 241 260 290 311 325 345 325 340 322 336 341 340 345 353 349 342 332 330 331 337 335 338 325
88 335 66 82 247 123 325 69 46 358 326 292 233 271 303 295 271 182 159 182 217 237 245 253 251 248 248 243 245 246 249 256 256 272 284 255 247 250 238 219 216 210 208 203 204 201 201 189 187 187 192 185 178 176 179 195 200 213 218 212 228 224 220 212 209 227 211 226 196 205 196 233 207 210 221 237 268 285 300 319 317 316 318 327 335 346 345 351 344 336 335 323 325 312 315 330 334
93 100 118 60 321 131 98 159 27 341 270 227 323 293 280 277 269 241 140 153 222 239 241 236 235 236 235 238 240 243 243 249 262 274 259 256 256 248 238 222 215 206 209 205 202 206 205 198 188 197 189 181 185 186 194 197 202 210 226 231 238 218 212 208 214 211 216 218 200 213 204 222 205 222 210 229 238 252 260 273 268 280 296 300 317 336 325 324 331 327 326 306 324 324 333 343 343
310 87 164 112 326 4 80 14 24 355 337 25 168 294 277 265 270 206 123 177 228 220 227 235 235 229 234 236 243 241 246 263 267 261 239 224 233 224 218 220 203 203 206 202 206 206 205 203 203 201 182 189 201 202 198 204 209 213 225 227 225 233 212 213 221 207 210 208 207 213 216 211 210 221 215 220 221 238 251 246 255 259 277 288 285 293 296 305 312 328 331 315 298 321 328 349 350
59 313 50 201 77 288 39 145 342 341 277 323 356 312 297 312 309 302 185 207 223 222 248 253 256 243 235 235 241 250 251 254 250 248 239 226 216 223 221 219 220 229 212 206 211 207 202 204 208 206 192 193 202 204 203 210 212 220 235 272 258 263 231 258 254 227 208 212 209 211 216 211 211 216 215 215 222 229 236 245 241 241 241 272 271 265 281 294 312 319 329 328 326 281 294 345 351
16 326 285 13 1 329 145 130 348 12 319 351 316 296 298 328 99 71 17 231 267 270 253 261 250 253 245 242 245 249 250 252 252 248 237 217 212 214 214 221 216 214 218 208 209 210 207 211 208 207 201 198 203 203 209 214 209 200 200 281 278 276 290 199 230 221 224 218 219 211 215 212 210 217 210 214 216 222 228 239 240 237 236 234 263 274 273 289 297 312 322 322 319 310 319 323 0
43 18 12 339 325 5 293 17 326 294 209 250 292 223 213 18 21 29 90 169 274 244 238 244 240 239 257 283 277 247 251 250 256 256 241 225 213 218 217 214 199 210 215 217 205 205 207 212 210 207 205 202 206 202 203 205 191 201 202 196 220 227 222 230 219 227 217 219 223 213 215 207 208 215 211 214 221 219 222 229 236 237 237 232 243 255 261 269 291 287 297 301 321 318 316 321 295
133 60 345 351 250 289 274 284 298 196 169 50 4 205 61 21 44 8 350 341 279 179 253 253 237 221 218 242 247 244 238 245 254 258 256 240 235 230 215 208 213 219 221 218 208 208 210 213 210 205 208 206 207 204 199 197 205 211 205 216 221 219 234 213 220 223 203 206 214 213 207 203 207 213 214 214 217 221 221 225 229 234 230 230 230 247 256 252 240 263 267 290 283 285 301 300 302
218 79 213 231 281 280 281 310 251 346 11 25 326 343 93 51 32 4 347 315 302 242 235 259 251 235 220 238 245 240 238 240 234 249 256 250 240 239 236 223 219 223 229 212 204 212 213 217 213 207 209 211 206 202 194 198 209 215 218 223 230 235 244 242 222 218 222 215 209 203 204 202 206 211 214 215 216 220 225 222 224 229 234 235 236 239 241 244 247 241 252 252 275 282 274 286 295
81 78 150 166 208 275 324 320 349 73 290 224 30 16 354 87 39 352 325 302 358 24 19 303 271 261 262 269 274 271 265 257 253 248 243 238 239 230 233 227 217 221 222 200 213 215 218 219 215 213 214 215 206 198 197 201 209 213 216 222 229 236 234 245 217 210 206 212 210 211 208 206 203 210 215 214 216 218 221 224 222 226 229 232 234 236 240 236 238 228 236 252 260 256 260 275 294
40 144 220 235 314 1 320 306 50 37 257 78 40 2 226 67 54 192 330 7 10 12 2 6 8 19 338 288 285 282 277 267 258 261 261 253 242 236 238 241 236 234 222 218 215 216 216 219 220 219 221 217 216 200 204 206 214 216 215 219 230 233 236 240 232 207 213 205 220 213 213 212 206 208 214 215 213 216 219 224 221 224 227 229 227 237 234 232 235 243 236 236 238 252 253 264 270
105 125 111 82 102 89 296 315 210 164 258 42 6 354 322 95 8 7 124 342 354 345 332 322 332 324 320 318 317 310 308 288 264 257 262 265 264 263 257 259 258 245 239 229 230 223 217 213 217 220 224 218 214 206 208 213 213 218 220 223 228 234 226 230 225 227 218 211 222 219 213 215 213 209 211 215 215 215 219 222 224 225 227 228 231 234 233 228 229 232 237 242 245 249 252 249 255
101 166 198 178 206 235 257 53 336 240 97 55 22 0 343 85 29 19 357 2 313 313 314 310 314 330 329 314 316 320 324 313 289 271 259 259 258 259 257 257 256 250 232 229 231 225 220 216 219 221 225 219 212 209 205 212 210 214 221 222 224 230 228 224 226 227 220 215 224 220 215 217 213 214 209 211 213 214 216 220 225 225 227 228 229 230 229 228 228 230 233 234 239 241 250 252 255
240 211 258 176 180 204 199 170 259 236 76 84 33 342 314 15 83 48 355 293 243 282 301 316 321 326 325 323 327 321 312 302 294 282 271 257 258 245 237 249 247 245 238 230 227 224 222 220 217 225 228 219 213 210 207 214 212 215 221 222 224 226 225 220 225 233 218 218 218 221 214 215 217 215 213 215 212 210 213 218 221 226 226 225 226 227 229 227 229 230 233 232 236 233 241 248 252
220 220 222 273 20 229 181 42 205 30 22 84 17 340 268 196 55 324 320 340 335 257 269 298 309 309 317 323 329 325 316 307 300 299 298 293 273 267 247 252 250 244 237 234 230 223 225 225 220 224 233 219 214 206 210 213 213 216 215 219 224 225 224 227 229 232 227 221 218 219 212 216 213 215 214 215 216 205 208 215 216 218 222 223 225 224 227 226 229 231 234 236 239 239 236 237 247
231 267 343 307 19 50 2 19 225 259 141 64 258 24 274 28 267 231 303 337 339 322 295 289 294 298 311 316 321 321 313 306 310 306 301 297 297 296 288 283 275 271 259 250 242 233 229 228 225 224 238 224 213 209 213 215 218 220 217 218 220 219 224 222 228 230 228 225 220 220 216 219 217 217 212 211 208 201 207 214 214 219 221 223 220 223 226 225 225 231 235 236 237 237 239 239 245
41 355 298 14 88 10 19 285 330 13 338 96 111 267 102 203 119 183 293 304 311 307 282 284 266 272 279 294 282 281 314 336 328 316 307 304 302 298 296 294 292 287 287 281 268 255 245 242 233 230 239 232 215 214 212 218 222 220 219 219 220 218 223 223 227 227 227 223 221 222 224 222 224 223 215 213 195 198 205 209 214 219 220 221 221 222 223 225 224 229 234 237 237 237 237 236 241
160 263 250 245 86 292 334 46 315 74 310 250 171 307 187 265 350 287 268 284 250 240 238 246 319 318 288 297 347 349 342 337 337 328 326 325 317 310 299 294 289 287 286 282 275 270 256 255 254 249 247 248 230 220 218 219 223 221 219 218 220 219 222 226 233 227 227 224 226 221 227 224 226 226 221 206 200 199 204 209 212 218 219 220 219 220 221 222 221 226 233 232 233 227 233 233 237
95 229 58 41 340 115 114 130 102 238 229 151 357 260 201 267 280 238 11 297 49 9 10 8 4 358 350 5 355 354 345 340 341 335 331 327 329 326 314 308 303 299 292 283 281 270 264 261 255 255 254 255 252 244 238 233 232 226 225 221 221 219 220 222 226 228 224 221 224 227 229 230 226 223 225 206 209 203 206 206 213 216 217 218 218 218 219 222 222 225 230 231 231 227 227 231 232
272 167 112 105 11 324 281 7 178 265 318 78 249 326 319 233 161 133 139 25 25 2 10 343 4 6 9 355 350 347 342 333 321 320 320 318 320 323 327 315 313 309 306 303 299 294 277 269 260 261 260 255 251 245 243 242 242 241 243 233 227 224 223 227 228 232 226 222 223 227 229 229 224 220 213 213 208 210 210 211 216 217 216 214 216 216 217 220 222 228 230 232 232 228 229 230 230
329 31 57 272 169 167 92 246 231 260 268 322 251 278 253 256 126 173 107 12 354 3 352 2 9 2 355 347 342 341 336 333 338 339 338 339 338 338 337 333 330 325 318 311 307 304 295 284 272 263 263 260 258 250 238 239 234 237 235 240 238 234 234 237 237 235 233 229 229 225 223 226 226 215 214 215 213 214 212 212 214 219 217 216 214 216 215 219 220 228 228 231 228 225 228 232 228
180 269 153 92 280 18 211 68 348 299 135 274 133 304 264 193 188 156 115 91 350 340 354 8 350 350 343 341 334 330 332 333 336 337 334 331 330 332 334 336 336 335 331 325 318 311 305 301 290 280 274 268 262 255 250 246 238 233 238 236 238 235 236 236 238 237 235 236 236 232 230 228 226 217 219 213 216 216 215 215 213 216 219 217 215 215 214 217 219 224 226 227 226 221 227 231 231
172 208 171 113 33 321 36 57 356 322 146 213 321 281 201 163 182 139 123 114 133 327 336 328 334 333 333 328 325 323 322 328 332 332 329 329 329 331 334 337 331 318 305 311 326 328 317 309 301 296 291 289 278 268 256 251 245 239 238 238 238 233 234 233 237 236 240 242 242 237 236 236 228 228 217 215 216 220 217 216 217 217 219 218 216 215 212 216 220 225 224 227 227 223 225 230 231
333 314 151 155 147 153 202 181 122 5 256 188 207 298 293 110 166 153 139 129 151 209 282 297 307 316 318 317 320 324 321 322 324 324 325 322 324 328 333 334 332 341 346 347 342 334 336 334 326 315 306 293 288 282 266 261 251 247 244 243 239 238 236 232 235 235 236 241 242 242 242 238 237 241 222 226 223 222 221 219 220 224 223 222 222 218 215 215 221 224 226 223 224 225 227 231 229